BMCB-38 Weather Reports


time (UTC)temp
C
wind
direction
speed
KPH
gust
KPH
rain 1hr
cm
rain 24hr
cm
rain mn
cm
humidity
%
barometer
mb
20260506234039 8 0 0.0 0.0 0.00 0.94 0.00 97 1013.3
20260506233038 8 0 0.0 0.0 0.00 0.97 0.00 97 1013.2
20260506232038 8 0 0.0 0.0 0.00 0.99 0.00 97 1013.2
20260506231036 8 0 0.0 0.0 0.00 1.02 0.00 97 1013.2
20260506230039 8 0 0.0 0.0 0.00 1.07 0.00 97 1013.1
20260506225038 8 0 0.0 0.0 0.00 1.09 0.00 97 1013.1
20260506224038 8 0 0.0 0.0 0.00 1.09 0.00 97 1012.9
20260506223036 8 0 0.0 0.0 0.00 1.12 0.00 96 1012.9
20260506221036 8 0 0.0 0.0 0.00 1.14 0.00 96 1012.7
20260506220047 8 0 0.0 0.0 0.00 1.17 0.00 95 1012.7
20260506215038 8 0 0.0 0.0 0.00 1.17 1.17 95 1012.5
20260506213038 8 0 0.0 0.0 0.00 1.22 1.17 93 1012.4
20260506212040 8 0 0.0 0.0 0.00 1.24 1.17 93 1012.3
20260506205039 7 0 0.0 0.0 0.00 1.30 1.17 91 1012.0
20260506204036 7 0 0.0 0.0 0.00 1.32 1.17 91 1012.0
20260506203039 7 0 0.0 0.0 0.00 1.35 1.17 90 1011.9
20260506202038 8 0 0.0 0.0 0.00 1.37 1.17 89 1011.8
20260506201040 8 0 0.0 0.0 0.00 1.37 1.17 89 1011.8
20260506200039 8 0 0.0 0.0 0.00 1.42 1.17 88 1011.7
20260506195037 8 0 0.0 0.0 0.00 1.45 1.17 87 1011.5
20260506194037 8 0 0.0 0.0 0.00 1.45 1.17 86 1011.5
20260506193037 9 0 0.0 0.0 0.00 1.47 1.17 84 1011.4
20260506192036 9 0 0.0 0.0 0.00 1.50 1.17 84 1011.3
20260506190038 10 0 0.0 0.0 0.00 1.52 1.17 84 1011.0
20260506185038 10 0 0.0 0.0 0.00 1.55 1.17 83 1010.8
20260506184036 10 0 0.0 0.0 0.00 1.55 1.17 82 1010.8
20260506183039 10 0 0.0 0.0 0.00 1.57 1.17 83 1010.7
20260506182038 10 0 0.0 0.0 0.00 1.60 1.17 82 1010.5
20260506181041 11 0 0.0 0.0 0.00 1.63 1.17 81 1010.4
20260506180038 11 0 0.0 0.0 0.00 1.63 1.17 79 1010.3
20260506175038 11 0 0.0 0.0 0.00 1.65 1.17 81 1010.2
20260506174039 11 0 0.0 0.0 0.00 1.65 1.17 80 1009.9
20260506173036 11 0 0.0 0.0 0.00 1.68 1.17 78 1009.8
20260506172039 11 0 0.0 0.0 0.00 1.70 1.17 80 1009.7
20260506171040 11 0 0.0 0.0 0.00 1.70 1.17 81 1009.7
20260506170035 11 0 0.0 0.0 0.00 1.73 1.17 83 1009.6
20260506165037 11 0 0.0 0.0 0.00 1.73 1.17 83 1009.6
20260506164034 11 0 0.0 0.0 0.00 1.73 1.17 82 1009.6
20260506163039 11 0 0.0 0.0 0.00 1.73 1.17 82 1009.5
20260506162037 11 0 0.0 0.0 0.00 1.73 1.17 83 1009.5
20260506161039 12 0 0.0 0.0 0.00 1.73 1.17 79 1009.4
20260506160037 12 0 0.0 0.0 0.00 1.73 1.17 79 1009.4
20260506155036 12 0 0.0 0.0 0.00 1.73 1.17 80 1009.4
20260506154041 12 0 0.0 0.0 0.00 1.73 1.17 83 1009.3
20260506153036 11 0 0.0 0.0 0.00 1.73 1.17 84 1009.3
20260506151039 12 0 0.0 0.0 0.00 1.73 1.17 84 1009.2
20260506150037 12 0 0.0 0.0 0.00 1.73 1.17 84 1009.2
20260506145038 11 0 0.0 0.0 0.00 1.73 1.17 85 1009.2
20260506143035 11 0 0.0 0.0 0.00 1.73 1.17 88 1009.4
20260506142037 11 0 0.0 0.0 0.00 1.73 1.17 90 1009.4
20260506141038 11 0 0.0 0.0 0.00 1.73 1.17 89 1009.4
20260506140040 11 0 0.0 0.0 0.00 1.73 1.17 90 1009.4
20260506135039 11 0 0.0 0.0 0.00 1.73 1.17 93 1009.4
20260506134038 10 0 0.0 0.0 0.00 1.73 1.17 92 1009.5
20260506132039 10 0 0.0 0.0 0.00 1.73 1.17 91 1009.5
20260506131036 10 0 0.0 0.0 0.00 1.73 1.17 89 1009.4
20260506130037 10 0 0.0 0.0 0.00 1.73 1.17 89 1009.3
20260506124037 10 0 0.0 0.0 0.00 1.73 1.17 90 1009.3
20260506123037 10 0 0.0 0.0 0.00 1.73 1.17 88 1009.1
20260506122037 11 0 0.0 0.0 0.00 1.73 1.17 90 1009.1
20260506121035 11 0 0.0 0.0 0.00 1.73 1.17 92 1009.0
20260506120036 10 0 0.0 0.0 0.00 1.73 1.17 94 1009.1
20260506115036 10 0 0.0 0.0 0.00 1.73 1.17 94 1009.1
20260506114037 10 0 0.0 0.0 0.00 1.73 1.17 93 1009.1
20260506113038 10 0 0.0 0.0 0.00 1.73 1.17 94 1009.0
20260506111037 10 0 0.0 0.0 0.00 1.73 1.17 10 1009.2
20260506105037 9 0 0.0 0.0 0.00 1.73 1.17 10 1009.2
20260506104025 8 0 0.0 0.0 0.03 1.73 1.17 10 1009.2
20260506103037 8 0 0.0 0.0 0.03 1.73 1.17 10 1009.2
20260506102037 8 0 0.0 0.0 0.03 1.73 1.17 10 1009.2
20260506101036 8 0 0.0 0.0 0.05 1.75 1.17 10 1009.1
20260506100036 8 0 0.0 0.0 0.05 1.75 1.17 10 1008.9
20260506094034 8 0 0.0 0.0 0.10 1.75 1.17 10 1008.9
20260506093038 8 0 0.0 0.0 0.13 1.75 1.14 10 1008.7
20260506092034 8 0 0.0 0.0 0.15 1.75 1.14 10 1008.6
20260506090038 8 0 0.0 0.0 0.15 1.73 1.12 10 1008.6
20260506084036 8 0 0.0 0.0 0.13 1.68 1.09 10 1008.3
20260506081037 7 0 0.0 0.0 0.08 1.60 0.99 10 1008.2
20260506073038 7 0 0.0 0.0 0.08 1.55 0.97 10 1007.9
20260506072035 7 0 0.0 0.0 0.08 1.55 0.94 10 1007.8
20260506071036 7 0 0.0 0.0 0.08 1.55 0.94 10 1007.8
20260506062035 7 0 0.0 0.0 0.08 1.47 0.89 10 1007.6
20260506061036 7 0 0.0 0.0 0.05 1.45 0.86 10 1007.6
20260506045024 7 0 0.0 0.0 0.15 1.40 0.76 10 1007.6
20260506043037 7 0 0.0 0.0 0.15 1.37 0.71 10 1007.5
20260506042022 7 0 0.0 0.0 0.15 1.37 0.71 10 1007.5
20260506041022 7 0 0.0 0.0 0.15 1.35 0.69 10 1007.4
20260506040023 7 0 0.0 0.0 0.13 1.32 0.66 10 1007.5
20260506035024 7 0 0.0 0.0 0.10 1.30 0.64 10 1007.5
20260506034036 7 0 0.0 0.0 0.08 1.27 0.61 10 1007.5
20260506033023 7 0 0.0 0.0 0.05 1.24 0.58 10 1007.5
20260506032022 7 0 0.0 0.0 0.05 1.22 0.56 10 1007.5
20260506031021 7 0 0.0 0.0 0.05 1.19 0.53 10 1007.5
20260506030025 7 0 0.0 0.0 0.05 1.19 0.53 10 1007.5
20260506025022 7 0 0.0 0.0 0.05 1.19 0.53 10 1007.5
20260506024036 8 0 0.0 0.0 0.08 1.22 0.53 10 1007.6
20260506023023 8 0 0.0 0.0 0.08 1.19 0.51 10 1007.6
20260506021023 8 0 0.0 0.0 0.10 1.17 0.51 10 1007.6
20260506020024 8 0 0.0 0.0 0.13 1.17 0.51 10 1007.7
20260506015022 8 0 0.0 0.0 0.13 1.17 0.48 10 1007.7
20260506014023 8 0 0.0 0.0 0.15 1.17 0.48 10 1007.7
20260506013023 8 0 0.0 0.0 0.15 1.14 0.46 10 1007.8
20260506012035 8 0 0.0 0.0 0.15 1.12 0.43 10 1007.8
20260506011024 8 0 0.0 0.0 0.15 1.09 0.43 10 1007.8
20260506010020 8 0 0.0 0.0 0.15 1.09 0.41 10 1007.9
20260506005026 8 0 0.0 0.0 0.15 1.07 0.38 10 1007.9
20260506004023 8 0 0.0 0.0 0.15 1.04 0.36 10 1007.9
20260506003023 8 0 0.0 0.0 0.13 0.99 0.33 10 1008.0
20260506001023 8 0 0.0 0.0 0.15 0.99 0.30 10 1008.1
20260506000045 8 0 0.0 0.0 0.18 0.97 0.28 10 1008.2
20260505235031 8 0 0.0 0.0 0.18 0.94 0.25 10 1008.3